Location: Mohawk View
(42.7837°N, 73.7885°W)
Time: 16:48:52
(UTC+00:00)

Cosmos 2061 Rocket - Pass Details

Date: 17 June 2021
Orbit: 965 x 1013 km, 82.9° (Epoch: 02 August)

Event Time Altitude Azimuth Distance (km) Brightness Sun altitude
Rises 02:32:01 0° 355° (N) 3,759 8.2 -16.0°
Reaches altitude 10° 02:34:36 10° 358° (N) 2,804 7.3 -16.2°
Maximum altitude 02:41:01 63° 80° (E) 1,118 4.2 -16.9°
Enters shadow 02:44:39 27° 153° (SSE) 1,842 4.8 -17.2°
